Regional Weather Roundup
Issued by NWS

Home | Current Version | Previous Version | Text Only | Print | Product List | Glossary Off
Versions: 1 2 3 4 5 6 7 8 9 10 11 12 13 14 15 16 17 18 19 20 21 22 23 24 25 26 27 28 29 30 31 32 33 34 35 36 37 38 39 40 41 42 43 44 45 46 47 48 49 50

000
ASUS43 KMKX 041111
RWRWI

WISCONSIN REGIONAL WEATHER ROUNDUP
NATIONAL WEATHER SERVICE MILWAUKEE/SULLIVAN WI
600 AM CDT MON MAY 04 2015

NOTE: "FAIR" INDICATES FEW OR NO CLOUDS BELOW 12,000 FEET WITH NO
SIGNIFICANT WEATHER AND/OR OBSTRUCTIONS TO VISIBILITY.

WIZ001-002-006>008-014>016-023>028-041200-
NORTHWEST WISCONSIN

CITY           SKY/WX    TMP DP  RH WIND       PRES   REMARKS
SUPERIOR ARPT  CLEAR     44  35  71 CALM      30.08R
ASHLAND        CLEAR     40  33  76 W5        30.07R
HAYWARD        CLEAR     37  34  89 CALM      30.07R
SIREN          CLEAR     37  32  81 CALM      30.09R
CUMBERLAND     CLEAR     46  32  57 N6        30.08R
RICE LAKE      CLEAR     48  34  58 N5        30.08R
CHETEK         CLEAR     47  40  76 NW3       30.06R
LADYSMITH      CLEAR     47  39  73 N5        30.05R
EAU CLAIRE     CLEAR     51  40  65 N3        30.03R
MENOMONIE      CLEAR     50  40  67 NW8       30.05R
NEW RICHMOND   CLEAR     49  34  56 N5        30.07R
OSCEOLA        CLEAR     44  37  75 CALM      30.11R
$$

WIZ003>005-009-010-017-018-041200-
NORTH CENTRAL WISCONSIN

CITY           SKY/WX    TMP DP  RH WIND       PRES   REMARKS
MANITOWISH WTR PTCLDY    46  36  66 N6        30.02R
ARBOR VITAE    CLEAR     46  37  70 N8        30.01R
WOODRUFF       CLEAR     46  37  70 N8        30.01R
RHINELANDER    CLEAR     49  41  74 CALM      30.01R
EAGLE RIVER    CLEAR     47  36  64 N9        30.00R
LAND O LAKES   CLEAR     48  36  63 N9        30.01R
PHILLIPS       CLEAR     44  38  78 NW3       30.02R
TOMAHAWK       CLEAR     45  41  87 NW3       30.02R
MEDFORD        CLEAR     48  41  76 N8        30.01R
MERRILL        CLEAR     48  45  87 N5        30.00R
$$

WIZ029-030-035-036-043>047-041200-
CENTRAL WISCONSIN

CITY           SKY/WX    TMP DP  RH WIND       PRES   REMARKS
WAUSAU         CLEAR     52  48  86 NW7       29.98R
MOSINEE        CLEAR     52  52 100 NW6       29.99R
MARSHFIELD     PTCLDY    52  50  93 N6        30.00R
STEVENS POINT  FOG       51  51 100 CALM      29.99R VSB 1/4
WAUPACA        PTCLDY    58  56  95 W5        29.97R
WAUTOMA        MOCLDY    55  55 100 W5        29.99R FOG
WISC RAPIDS    PTCLDY    53  51  93 N7        30.00R FOG
CAMP DOUGLAS   MOCLDY    56  56 100 NW5       29.98R
$$

WIZ011>013-019>022-031-037>040-048>050-041200-
NORTHEAST WISCONSIN

CITY           SKY/WX    TMP DP  RH WIND       PRES   REMARKS
ANTIGO         CLEAR     46  46 100 NW3       29.99R
SHAWANO        PTCLDY    57  55  94 NW3       29.96R
OCONTO         CLOUDY    58  58 100 NW3       29.94R
STURGEON BAY   CLOUDY    55  52  88 NW3       29.96R
GREEN BAY      CLOUDY    59  57  93 NW8       29.95R FOG
MANITOWOC      FOG       55  54  94 NW3       29.94R VSB 1/2
APPLETON       MOCLDY    55  55 100 NW8       29.96R FOG
CLINTONVILLE   PTCLDY    55  54  94 NW3       29.95R
OSHKOSH        MOCLDY    57  54  89 W8        29.95R
$$

WIZ032>034-041-042-053>061-041200-
SOUTHWEST WISCONSIN

CITY           SKY/WX    TMP DP  RH WIND       PRES   REMARKS
LA CROSSE      MOCLDY    58  54  86 N7        30.01R
SPARTA         CLOUDY    56  56  97 CALM      30.02R
VIROQUA        CLOUDY    57  57 100 CALM      30.02R
BOSCOBEL       CLOUDY    58  56  93 CALM      30.00R
PRAIRIE DU CHI CLOUDY    57  56  96 N3        29.99R
PLATTEVILLE    CLOUDY    56  55  97 N8        29.97R
$$

WIZ056-057-062-063-064-067-068-041200-
SOUTH CENTRAL WISCONSIN

CITY           SKY/WX    TMP DP  RH WIND       PRES   REMARKS
REEDSBURG      CLOUDY    57  56  99 W3        29.99R
BARABOO/DELLS  NOT AVBL
LONE ROCK      CLOUDY    59  56  89 N8        30.00R
MINERAL POINT  CLOUDY    55  55 100 NW6       29.99R FOG
MADISON        CLOUDY    57  55  93 NW3       29.98R
MIDDLETON      CLOUDY    58  58  98 NW5       30.00R
WATERTOWN      CLOUDY    56  56 100 NW6       29.96R
MONROE         CLOUDY    55  54  94 W8        29.96R
JANESVILLE     MOCLDY    55  54  94 CALM      29.94R FOG
$$

WIZ051-052-058>065-066-070>072-041200-
SOUTHEAST WISCONSIN

CITY           SKY/WX    TMP DP  RH WIND       PRES   REMARKS
MILWAUKEE      CLOUDY    61  53  75 W7        29.92R
WAUKESHA       CLOUDY    54  54 100 W6        29.94R
MILWAUKEE/TIMM CLOUDY    55  54  94 NW12      29.95R
RACINE         CLOUDY    60  53  77 NW5       29.93R
BURLINGTON     CLOUDY    51  51  99 N3        29.94R FOG
KENOSHA        CLOUDY    56  54  93 W5        29.93R
FOND DU LAC    CLOUDY    57  55  93 W10       29.95R
SHEBOYGAN      CLOUDY    56  55  97 W7        29.93R FOG
WEST BEND      CLOUDY    59  54  82 W8        29.96R
JUNEAU         CLOUDY    57  56  95 W3        29.98R
$$

LSZ147-162-041200-
LAKE SUPERIOR

STATION/POSITION TIME  TEMP    WIND        PRES    WAVE
                       AIR SEA DIR/SP/G            HT/PER
                 (UTC) (F)     (DEG/KT/KT) (MB)    (FT/S)
W MID LAKE BUOY  1050   42 35  300/  8/ 10 1017.1R   1
DEVILS ISLAND    1100   44     240/  8/  8 1018.1R
PORT WING        1000   38     170/  5/  5 1017.9R
SAXON HARBOR     1000   43        CALM     1016.9R
$$

LMZ867-665-643>646-041200-
LAKE MICHIGAN

STATION/POSITION TIME  TEMP    WIND        PRES    WAVE
                       AIR SEA DIR/SP/G            HT/PER
                 (UTC) (F)     (DEG/KT/KT) (MB)    (FT/S)
CHAMBERS ISLAND  1000   55     260/  2/  4 1012.9R
NORTHPORT PIER   1000   52     250/  4/ 10 1012.5R
KEWAUNEE LAKESHO 1000   53     330/  2/  6 1011.0F
SHEBOYGAN LAKESH 1100   58     250/  5/  6 1013.6R
PORT WASHINGTON  1040   59     310/  4/ 12 1014.2R
ATWATER BUOY     1000   51     290/  4/  6 1013.5R
MILWAUKEE LAKESH 1000   59     340/  3/  4   N/A
KENOSHA   LAKESH 1100   62     250/  5/  7 1013.5R
$$

TC  - TEMPERATURE IN CELSIUS
VSB - VISIBILITY IN STATUTE MILES
WCI - WIND CHILL INDEX
HX  - HEAT INDEX




USA.gov is the U.S. government's official web portal to all federal, state and local government web resources and services.